Retour au catalogue

STARLINK-37074

ActifCommunicationsVLEO
NORAD 68073·PAYLOAD·🇺🇸 United States

Lancé Mar 4, 2026 depuis Vandenberg Space Force Base

Loading…

Prochains Passages (prochaines 24 heures)

TLE

FraisSource: CelesTrak SupGP

Époque: Sep 15, 2026, 04:16 UTC

1 68073C 26042E   26258.17826389  .00032465  00000+0  95987-3 0  2583
2 68073  53.1602  14.4681 0001298  84.2807 303.1755 15.34351640    13

Suivez STARLINK-37074 en temps réel avec AllMySat

Download on the App Store